Total_Precipitation_Accumulation
1.10 1.10 1.09 1.06 0.95 0.93 0.98 0.98 0.97 0.97 1.01 1.00 0.92 0.85 0.92 0.92 0.89 0.96 1.02 1.08 1.15 1.29 1.44 1.57 1.72 1.97 2.26 2.27 2.21 2.08 1.96 1.82 1.59 1.44 1.23 1.15 1.47 1.58 1.48 1.35 1.31 1.28 1.05
1.03 1.04 1.03 0.92 0.86 0.82 0.80 0.77 0.69 0.66 0.69 0.78 0.87 0.82 0.80 0.83 0.86 0.93 0.95 0.99 1.01 1.10 1.20 1.33 1.51 1.79 2.13 2.34 2.41 2.29 2.13 1.98 1.85 1.69 1.36 1.11 1.23 1.58 1.72 1.66 1.43 1.26 1.13
1.10 0.95 0.85 0.80 0.76 0.74 0.66 0.61 0.58 0.52 0.52 0.57 0.66 0.67 0.76 0.83 0.86 0.88 0.90 0.94 0.96 1.05 1.19 1.25 1.30 1.50 1.69 1.90 2.08 2.20 2.18 2.15 2.13 1.89 1.58 1.32 1.25 1.39 1.64 1.66 1.57 1.52 1.30
1.20 1.09 0.94 0.84 0.76 0.71 0.63 0.58 0.54 0.52 0.55 0.61 0.73 0.78 0.73 0.71 0.76 0.86 0.90 0.86 0.85 0.89 0.97 1.07 1.17 1.21 1.37 1.51 1.61 1.80 2.01 2.24 2.32 2.18 1.91 1.59 1.47 1.36 1.46 1.62 1.68 1.62 1.53
1.17 1.18 1.03 0.95 0.86 0.73 0.66 0.64 0.61 0.64 0.61 0.63 0.73 0.84 0.90 0.85 0.82 0.91 0.88 0.86 0.85 0.84 0.89 0.89 0.96 0.98 1.04 1.22 1.27 1.49 1.81 2.07 2.19 2.26 2.14 1.84 1.57 1.40 1.19 1.29 1.54 1.76 1.75
0.82 0.91 0.88 0.78 0.68 0.64 0.63 0.60 0.56 0.55 0.51 0.50 0.54 0.61 0.70 0.74 0.94 0.90 0.75 0.71 0.77 0.83 0.88 0.87 0.89 0.84 0.82 0.88 1.01 1.14 1.44 1.65 1.79 1.87 1.89 1.74 1.53 1.39 1.34 1.31 1.37 1.51 1.57
0.52 0.62 0.62 0.56 0.50 0.46 0.49 0.49 0.46 0.41 0.42 0.40 0.39 0.39 0.45 0.60 0.69 0.54 0.53 0.58 0.72 0.84 0.91 0.94 0.90 0.84 0.89 0.90 0.91 0.93 1.00 1.17 1.39 1.59 1.61 1.51 1.57 1.48 1.40 1.30 1.31 1.33 1.32
0.27 0.31 0.33 0.34 0.33 0.34 0.36 0.36 0.36 0.35 0.33 0.31 0.38 0.45 0.47 0.49 0.56 0.46 0.45 0.55 0.75 0.88 0.88 0.84 0.91 0.92 0.94 1.00 0.94 1.01 0.96 0.94 1.03 1.08 1.22 1.42 1.57 1.73 1.70 1.59 1.60 1.54 1.45
0.10 0.12 0.14 0.17 0.21 0.25 0.26 0.29 0.36 0.38 0.37 0.39 0.50 0.57 0.51 0.44 0.49 0.50 0.55 0.69 0.82 0.90 0.87 0.86 0.94 0.98 1.11 1.16 1.06 1.11 1.08 1.04 1.01 1.12 1.21 1.32 1.40 1.52 1.66 1.70 1.66 1.62 1.48
0.05 0.06 0.08 0.10 0.12 0.15 0.19 0.22 0.24 0.27 0.33 0.40 0.42 0.40 0.41 0.47 0.54 0.52 0.64 0.82 0.94 1.04 1.00 0.99 1.18 1.13 1.11 1.05 1.03 1.18 1.15 1.00 0.93 0.97 1.03 1.11 1.15 1.24 1.36 1.40 1.52 1.59 1.50
0.05 0.08 0.10 0.11 0.10 0.10 0.09 0.08 0.11 0.16 0.18 0.20 0.22 0.27 0.34 0.49 0.54 0.57 0.77 0.86 0.92 1.07 1.09 1.05 0.99 1.12 1.06 0.99 0.98 1.04 1.17 1.06 1.00 1.03 1.03 1.03 1.05 1.08 1.12 1.17 1.29 1.42 1.47
0.04 0.07 0.08 0.07 0.06 0.06 0.06 0.05 0.05 0.08 0.11 0.14 0.17 0.23 0.29 0.35 0.42 0.49 0.62 0.75 0.83 1.00 1.08 0.98 0.88 1.11 1.07 0.98 0.89 0.92 1.07 1.13 1.13 1.17 1.15 1.07 0.98 0.95 0.94 1.00 1.08 1.19 1.29
0.04 0.05 0.06 0.06 0.07 0.05 0.05 0.05 0.05 0.06 0.08 0.10 0.15 0.22 0.30 0.35 0.37 0.43 0.50 0.59 0.71 0.88 0.94 0.95 0.96 1.00 0.92 0.88 0.97 1.00 1.02 1.05 1.14 1.20 1.08 0.93 0.87 0.85 0.91 1.01 1.12 1.21 1.28
0.04 0.05 0.06 0.06 0.08 0.06 0.06 0.06 0.06 0.05 0.08 0.12 0.19 0.25 0.29 0.34 0.36 0.45 0.53 0.56 0.65 0.73 0.75 0.78 0.82 0.79 0.79 0.83 0.90 0.99 1.04 1.09 1.11 1.05 0.94 0.82 0.82 0.87 0.89 0.92 1.03 1.16 1.30
0.03 0.05 0.05 0.07 0.08 0.05 0.05 0.05 0.05 0.06 0.08 0.14 0.17 0.21 0.23 0.25 0.31 0.41 0.55 0.64 0.74 0.83 0.84 0.76 0.77 0.77 0.76 0.76 0.81 0.85 0.89 0.90 0.93 0.91 0.88 0.86 0.85 0.87 0.87 0.86 0.93 0.98 1.00
0.03 0.04 0.05 0.05 0.05 0.05 0.06 0.05 0.04 0.04 0.05 0.07 0.08 0.12 0.18 0.22 0.20 0.24 0.34 0.51 0.69 0.94 1.18 1.14 1.12 1.05 0.95 0.84 0.77 0.72 0.71 0.73 0.77 0.82 0.84 0.82 0.81 0.84 0.89 0.91 0.94 0.98 0.97
0.03 0.04 0.04 0.04 0.04 0.04 0.07 0.11 0.12 0.08 0.05 0.04 0.05 0.08 0.15 0.20 0.19 0.23 0.31 0.37 0.49 0.82 1.21 1.20 1.18 1.02 0.88 0.81 0.70 0.61 0.57 0.59 0.67 0.68 0.71 0.74 0.74 0.77 0.83 0.86 0.87 0.92 0.94
0.02 0.02 0.03 0.05 0.05 0.05 0.06 0.11 0.22 0.27 0.21 0.10 0.07 0.08 0.14 0.21 0.26 0.34 0.44 0.54 0.61 0.75 0.89 0.90 0.82 0.75 0.68 0.57 0.53 0.51 0.48 0.52 0.61 0.63 0.64 0.64 0.65 0.69 0.72 0.79 0.82 0.83 0.87
0.02 0.03 0.06 0.09 0.08 0.06 0.07 0.14 0.20 0.13 0.12 0.14 0.12 0.09 0.11 0.14 0.18 0.26 0.38 0.49 0.51 0.55 0.55 0.51 0.45 0.43 0.44 0.42 0.41 0.40 0.41 0.45 0.52 0.60 0.62 0.60 0.59 0.61 0.65 0.69 0.76 0.83 0.84
0.02 0.03 0.05 0.11 0.12 0.07 0.08 0.11 0.10 0.09 0.11 0.14 0.15 0.14 0.15 0.15 0.16 0.19 0.25 0.29 0.30 0.31 0.30 0.30 0.29 0.30 0.33 0.33 0.34 0.35 0.36 0.40 0.46 0.52 0.56 0.59 0.58 0.56 0.59 0.64 0.68 0.71 0.72
0.01 0.01 0.02 0.06 0.09 0.07 0.07 0.09 0.07 0.08 0.11 0.12 0.13 0.13 0.16 0.20 0.20 0.20 0.19 0.19 0.21 0.23 0.26 0.27 0.26 0.28 0.31 0.31 0.34 0.37 0.41 0.44 0.46 0.53 0.54 0.56 0.59 0.60 0.59 0.62 0.66 0.66 0.69
0.01 0.02 0.03 0.05 0.06 0.05 0.05 0.08 0.10 0.08 0.09 0.11 0.13 0.13 0.16 0.21 0.22 0.21 0.19 0.18 0.19 0.21 0.27 0.30 0.31 0.32 0.32 0.34 0.39 0.42 0.44 0.46 0.49 0.52 0.58 0.59 0.58 0.59 0.61 0.62 0.67 0.68 0.69
0.03 0.04 0.04 0.05 0.07 0.06 0.06 0.07 0.11 0.13 0.12 0.13 0.14 0.14 0.15 0.18 0.20 0.24 0.24 0.24 0.27 0.30 0.28 0.29 0.33 0.35 0.34 0.35 0.39 0.45 0.51 0.52 0.54 0.58 0.63 0.63 0.60 0.60 0.63 0.63 0.64 0.68 0.70
0.04 0.04 0.04 0.06 0.07 0.08 0.08 0.09 0.10 0.11 0.14 0.18 0.18 0.17 0.18 0.21 0.24 0.23 0.23 0.29 0.31 0.30 0.30 0.29 0.31 0.35 0.37 0.39 0.41 0.44 0.47 0.51 0.56 0.60 0.64 0.68 0.66 0.62 0.65 0.70 0.71 0.72 0.77
0.05 0.05 0.06 0.08 0.11 0.12 0.13 0.14 0.14 0.14 0.18 0.22 0.20 0.19 0.19 0.20 0.22 0.21 0.21 0.26 0.28 0.27 0.27 0.29 0.31 0.35 0.37 0.39 0.42 0.44 0.49 0.54 0.57 0.59 0.62 0.69 0.71 0.70 0.70 0.75 0.81 0.83 0.87
0.09 0.10 0.11 0.13 0.15 0.17 0.18 0.19 0.19 0.19 0.20 0.20 0.20 0.22 0.23 0.23 0.25 0.24 0.23 0.24 0.27 0.28 0.28 0.29 0.31 0.34 0.35 0.36 0.41 0.48 0.51 0.49 0.51 0.57 0.61 0.69 0.77 0.79 0.79 0.80 0.80 0.84 0.87